Regional Weather Roundup
Issued by NWS

Home | Current Version | Previous Version | Text Only | Print | Product List | Glossary Off
Versions: 1 2 3 4 5 6 7 8 9 10 11 12 13 14 15 16 17 18 19 20 21 22 23 24 25 26 27 28 29 30 31 32 33 34 35 36 37 38 39 40 41 42 43 44 45 46 47 48 49 50

000
ASUS43 KMPX 270201
RWRMN
WEATHER ROUNDUP FOR MINNESOTA
NATIONAL WEATHER SERVICE TWIN CITIES/CHANHASSEN MN
900 PM CDT SUN APR 26 2015


NOTE: "FAIR" INDICATES FEW OR NO CLOUDS BELOW 12,000 FEET WITH NO
SIGNIFICANT WEATHER AND/OR OBSTRUCTIONS TO VISIBILITY. N/A MEANS
CURRENT SKY AND/OR WEATHER CONDITIONS ARE NOT AVAILABLE.

MNZ060>063-068>070-270300-
   Twin Cities Metro

CITY           SKY/WX    TMP DP  RH WIND       PRES   REMARKS
TWIN CITIES    PTCLDY    56  23  27 N6        30.10R
ST PAUL        CLEAR     57  23  26 N6        30.11R
CRYSTAL        CLEAR     54  23  30 N3        30.10R
LAKEVILLE      CLEAR     52  27  37 N5        30.10R
EDEN PRAIRIE   CLEAR     56  22  26 NE3       30.09R
SOUTH ST PAUL  CLEAR     57  24  27 N3        30.10R
LAKE ELMO      FAIR      54  27  35 N3        30.11R
$$
MNZ001>005-007-008-013>017-022>024-027-028-270300-
   Northwest Minnesota

CITY           SKY/WX    TMP DP  RH WIND       PRES   REMARKS
BEMIDJI        CLEAR     52  23  32 CALM      30.14R
HALLOCK        PTCLDY    57  19  23 SE5       30.12R
ROSEAU         CLEAR     52  30  43 E8        30.14S
WARROAD        CLEAR     46  28  49 E7        30.16R
THIEF RVR FALL CLEAR     55  23  28 E8        30.14R
CROOKSTON      PTCLDY    61  27  27 NE3       30.13R
FOSSTON        CLEAR     52  21  30 NE6       30.14S
DETROIT LAKES  CLEAR     57  23  26 SE5       30.14R
MOORHEAD       PTCLDY    61  25  25 CALM      30.12S
PARK RAPIDS    CLEAR     54  19  25 E3        30.13R
MAHNOMEN       FAIR      55  25  31 E5        30.12R
$$
MNZ006-009>011-018-025>026-270300-
   North Central Minnesota

CITY           SKY/WX    TMP DP  RH WIND       PRES   REMARKS
BAUDETTE       CLEAR     51  21  30 E5        30.15R
FLAG ISLAND    CLEAR     50  27  40 CALM      30.15R
INTL FALLS     CLEAR     41  18  39 CALM      30.16R
WASKISH        CLEAR     45  30  57 CALM      30.16R
BIG FORK       CLEAR     52  16  24 N3        30.16R
LONGVILLE      CLEAR     45  25  45 CALM      30.14R
GRAND RAPIDS   CLEAR     46  18  31 CALM      30.14S
CRANE LAKE     CLEAR     39  28  65 CALM      30.18R
ORR            CLEAR     45  16  31 CALM      30.14R
COOK           CLEAR     43  21  42 CALM      30.16R
WALKER         FAIR      54  17  23 CALM      30.13S
$$
MNZ012-019>021-037-270300-
   Northeast Minnesota

CITY           SKY/WX    TMP DP  RH WIND       PRES   REMARKS
DULUTH         CLEAR     45  19  35 E5        30.15R
ELY            CLEAR     46  25  42 CALM      30.15R
HIBBING        CLEAR     40  18  41 CALM      30.14R
EVELETH        CLEAR     46  19  34 SE3       30.16R
DULUTH HARBOR  CLEAR     37  34  87 CALM      30.18R
TWO HARBORS    CLEAR     41  28  60 CALM      30.15R
SILVER BAY     CLEAR     36  25  64 CALM      30.15R
GRAND MARAIS     N/A     35  28  75 CALM      30.17S
G MARAIS ARPRT CLEAR     36  21  55 CALM      30.16R
$$
MNZ029>031-032-039>041-046>048-054>057-064-270300-
   West Central Minnesota

CITY           SKY/WX    TMP DP  RH WIND       PRES   REMARKS
FERGUS FALLS   CLEAR     57  14  18 CALM      30.13R
WHEATON        CLEAR     52  25  35 E6        30.13R
MORRIS         CLEAR     52  23  32 E5        30.11R
ALEXANDRIA     CLEAR     52  19  27 E6        30.13R
ELBOW LAKE     FAIR      55  23  28 E3        30.12R
WADENA         PTCLDY    52  21  30 E7        30.13R
GLENWOOD       CLEAR     48  19  32 E8        30.13R
APPLETON       CLEAR     52  25  35 NE3       30.11R
BENSON         CLEAR     52  18  25 E5        30.12R
ORTONVILLE     CLEAR     52  28  40 NE5       30.11R
MADISON        CLEAR     52  19  28 NE8       30.11R
WILLMAR        FAIR      54  21  28 E5        30.13R
$$
MNZ033>034-036-042>043-049>051-058-059-270300-
   Central Minnesota

CITY           SKY/WX    TMP DP  RH WIND       PRES   REMARKS
ST CLOUD       PTCLDY    54  23  30 NE7       30.12R
SAUK CENTRE    FAIR      51  21  30 NE5       30.13R
PAYNESVILLE    PTCLDY    48  25  39 N3        30.13R
AITKIN         PTCLDY    45  16  31 CALM      30.12R
PINE RIVER     CLEAR     50  27  40 CALM      30.16S
BRAINERD       CLEAR     50  22  33 CALM      30.13R
STAPLES        PTCLDY    52  18  25 CALM      30.13S
LONG PRAIRIE   FAIR      50  23  34 CALM      30.14R
LITTLE FALLS   PTCLDY    45  23  42 CALM      30.13S
LITCHFIELD     PTCLDY    55  25  30 NE5       30.12R
BUFFALO        PTCLDY    52  25  35 CALM      30.12R
MAPLE LAKE     PTCLDY    50  29  45 CALM      30.12R
$$
MNZ037-044-045-052-053-270300-
   East Central Minnesota

CITY           SKY/WX    TMP DP  RH WIND       PRES   REMARKS
PRINCETON      PTCLDY    54  19  26 NE5       30.13R
MORA           CLEAR     45  23  42 CALM      30.15R
CAMBRIDGE      CLEAR     55  30  38 CALM      30.11R
RUSH CITY      PTCLDY    48  19  31 CALM      30.13R
MOOSE LAKE     CLEAR     46  27  46 CALM      30.13R
HINCKLEY       FAIR      45  21  39 CALM      30.13R
CLOQUET        CLEAR     43  18  36 CALM      30.15R
MCGREGOR       CLEAR     48  21  34 CALM      30.14R
$$
MNZ071>073-080-081-089-090-097-098-270300-
   Southwest Minnesota

CITY           SKY/WX    TMP DP  RH WIND       PRES   REMARKS
MONTEVIDEO     CLEAR     52  21  30 E8        30.12R
GRANITE FALLS  CLEAR     50  20  31 NE7       30.11S
CANBY          CLEAR     53  25  33 NE7       30.12R
MARSHALL       CLEAR     54  19  26 NE10      30.09R
REDWOOD FALLS  CLEAR     56  15  20 VRB5      30.09R
OLIVIA         CLEAR     50  18  27 NE7       30.11R
PIPESTONE      CLEAR     55  25  30 NE5       30.08R
WINDOM         CLEAR     54  21  28 NE5       30.08R
WORTHINGTON    CLEAR     54  25  32 NE8       30.08R
JACKSON        CLEAR     54  21  28 E8        30.08R
TRACY          CLEAR     54  20  27 NE6       30.09R
SLAYTON        CLEAR     54  21  27 CALM      30.10R
$$
MNZ065>067-074>077-082>085-091>093-270300-
   South Central Minnesota

CITY           SKY/WX    TMP DP  RH WIND       PRES   REMARKS
MANKATO        CLEAR     55  27  33 NE5       30.10R
NEW ULM        CLEAR     55  14  19 E6        30.10R
ST JAMES       CLEAR     55  18  22 NE6       30.10R
FAIRMONT       CLEAR     55  21  26 NE9       30.08R
GLENCOE        PTCLDY    55  26  31 CALM      30.10R
FARIBAULT      CLEAR     52  27  37 CALM      30.10R
OWATONNA       CLEAR     54  21  28 N5        30.09R
WASECA         CLEAR     52  27  37 NE7       30.10R
ALBERT LEA     CLEAR     52  28  40 NE5       30.09R
$$
MNZ078>079-086>088-094>096-270300-
   Southeast Minnesota

CITY           SKY/WX    TMP DP  RH WIND       PRES   REMARKS
ROCHESTER      CLEAR     53  23  31 N6        30.09R
RED WING       CLEAR     50  27  40 N5        30.09R
STANTON        CLEAR     52  24  34 E6        30.08R
DODGE CENTER   CLEAR     52  27  37 N3        30.09R
WINONA         CLEAR     52  32  46 CALM      30.07R
AUSTIN         CLEAR     52  27  37 CALM      30.08R
PRESTON        CLEAR     51  22  32 N3        30.08R
$$
ABBREVIATIONS USED IN REMARKS
   TC - TEMPERATURES IN CELSIUS
  WCI - WIND CHILL INDEX
   HX - HEAT INDEX
  VSB - VISIBILITY
$$



USA.gov is the U.S. government's official web portal to all federal, state and local government web resources and services.